Lid_Strength_Index
5 5 5 7 8 6 9 8 10 9 9 7 6 6 5 5 5 4 4 3 3 2 2 2 2 1 1 1 1 1 1 0
5 5 5 6 5 9 8 12 13 11 10 11 11 7 6 5 5 4 4 3 3 3 2 2 1 1 1 1 1 1 0 0
6 7 7 7 7 7 7 9 11 13 12 6 7 6 6 5 4 4 4 3 3 3 2 2 1 1 1 1 1 1 0 0
8 5 5 6 7 7 9 10 9 9 11 5 5 5 5 5 4 4 3 3 3 2 2 2 2 1 1 1 1 1 0 0
9 7 5 7 6 6 7 7 9 11 10 4 4 4 4 5 4 4 3 3 3 3 2 2 2 2 1 1 1 1 0 1
10 11 8 9 7 6 7 9 9 9 8 6 5 5 4 4 4 4 3 3 3 3 3 2 2 2 2 1 1 1 1 1
7 7 8 8 8 7 8 7 9 8 11 8 6 7 6 4 4 4 4 3 3 3 3 2 2 2 2 1 1 1 1 1
8 7 7 8 7 7 7 7 7 7 8 7 4 4 4 4 4 4 4 3 3 3 3 3 2 2 2 1 1 1 1 1
11 8 8 10 8 7 7 6 7 8 6 4 5 4 4 4 4 4 4 3 3 3 2 2 2 2 2 1 1 1 1 1
10 9 13 8 5 6 7 6 6 5 5 6 5 4 3 3 3 3 3 3 2 2 2 2 1 1 1 1 1 1 1 1
11 11 9 7 6 6 7 7 5 5 5 4 4 4 4 2 2 2 2 2 2 2 1 1 1 1 1 1 1 1 1 1
10 12 13 8 5 4 5 9 6 6 6 5 4 7 5 3 2 2 2 2 2 2 2 2 2 1 2 2 2 2 1 1
10 11 9 5 5 4 10 10 5 5 6 5 6 5 4 3 3 2 2 2 2 2 2 2 1 1 2 2 2 1 1 1
9 11 12 5 5 8 6 5 5 5 5 5 4 3 4 3 3 3 2 2 2 2 2 2 1 1 2 2 1 1 0 1
9 11 6 5 5 4 4 5 5 4 4 4 4 4 3 4 3 3 3 2 2 2 2 2 1 1 2 1 1 1 1 1
8 6 7 6 4 3 3 4 3 3 3 3 4 3 4 3 3 3 2 2 2 2 2 2 1 1 1 1 0 1 1 1
10 7 5 5 5 4 3 3 3 3 3 3 3 3 3 3 3 3 3 2 2 2 2 2 1 1 1 1 0 1 1 1
9 5 6 5 4 3 3 3 3 3 3 3 3 3 2 3 3 2 3 2 2 2 2 2 1 1 1 0 0 1 1 1
6 4 4 4 3 2 3 3 3 3 3 3 3 2 2 3 2 3 2 2 2 2 2 1 1 1 1 0 0 1 1 1